QPF
0.04 0.04 0.03 0.03 0.02 0.01 0.00 0.00 0.00 0.00 0.00 0.00 0.00 0.00 0.00 0.00 0.00 0.00 0.00 0.00 0.00 0.00 0.00 0.00 0.00 0.00 0.00 0.00 0.00 0.00 0.01 0.01 0.01 0.02 0.03 0.03 0.03 0.03 0.02 0.02 0.02 0.03 0.02
0.03 0.03 0.02 0.02 0.02 0.02 0.01 0.00 0.00 0.00 0.00 0.00 0.00 0.00 0.00 0.00 0.00 0.00 0.00 0.00 0.00 0.00 0.00 0.00 0.00 0.00 0.00 0.00 0.00 0.01 0.01 0.01 0.01 0.02 0.03 0.04 0.03 0.03 0.02 0.01 0.01 0.02 0.02
0.03 0.03 0.02 0.01 0.01 0.02 0.01 0.01 0.01 0.00 0.00 0.00 0.00 0.00 0.00 0.00 0.00 0.00 0.00 0.00 0.00 0.00 0.00 0.00 0.00 0.00 0.00 0.00 0.00 0.01 0.02 0.02 0.01 0.01 0.02 0.03 0.03 0.03 0.02 0.01 0.01 0.01 0.02
0.03 0.03 0.02 0.01 0.01 0.02 0.01 0.01 0.01 0.01 0.00 0.00 0.00 0.00 0.00 0.00 0.00 0.00 0.00 0.00 0.00 0.00 0.00 0.00 0.00 0.00 0.00 0.00 0.00 0.00 0.01 0.01 0.01 0.01 0.00 0.01 0.01 0.02 0.03 0.02 0.01 0.01 0.01
0.03 0.03 0.02 0.01 0.02 0.02 0.01 0.01 0.01 0.01 0.00 0.00 0.00 0.00 0.00 0.00 0.00 0.00 0.00 0.00 0.00 0.00 0.00 0.00 0.00 0.00 0.00 0.00 0.00 0.00 0.01 0.01 0.01 0.01 0.01 0.01 0.01 0.01 0.02 0.02 0.02 0.01 0.01
0.02 0.03 0.02 0.01 0.01 0.02 0.02 0.01 0.01 0.00 0.00 0.00 0.00 0.00 0.00 0.00 0.00 0.00 0.00 0.00 0.00 0.00 0.00 0.00 0.00 0.00 0.00 0.00 0.00 0.00 0.01 0.01 0.01 0.01 0.01 0.01 0.02 0.02 0.01 0.01 0.02 0.02 0.02
0.01 0.02 0.02 0.01 0.01 0.01 0.02 0.02 0.01 0.00 0.00 0.00 0.00 0.00 0.00 0.00 0.00 0.00 0.00 0.00 0.00 0.00 0.00 0.00 0.00 0.00 0.00 0.00 0.00 0.00 0.01 0.00 0.01 0.01 0.01 0.01 0.01 0.01 0.01 0.01 0.01 0.01 0.01
0.00 0.01 0.01 0.01 0.00 0.00 0.01 0.02 0.01 0.00 0.00 0.00 0.00 0.00 0.00 0.00 0.00 0.00 0.00 0.00 0.00 0.00 0.00 0.00 0.01 0.00 0.00 0.00 0.00 0.00 0.00 0.00 0.00 0.00 0.01 0.01 0.01 0.01 0.01 0.01 0.01 0.01 0.01
0.00 0.00 0.00 0.00 0.00 0.00 0.00 0.01 0.01 0.01 0.00 0.00 0.00 0.00 0.00 0.00 0.00 0.00 0.00 0.00 0.00 0.00 0.00 0.00 0.01 0.01 0.01 0.00 0.00 0.00 0.00 0.00 0.00 0.00 0.00 0.00 0.00 0.01 0.01 0.01 0.01 0.01 0.01
0.00 0.00 0.00 0.00 0.00 0.00 0.00 0.00 0.00 0.01 0.00 0.00 0.00 0.00 0.00 0.00 0.00 0.00 0.00 0.00 0.00 0.00 0.00 0.00 0.01 0.01 0.01 0.00 0.00 0.00 0.00 0.00 0.00 0.00 0.00 0.00 0.00 0.00 0.00 0.01 0.01 0.01 0.01
0.00 0.00 0.00 0.00 0.00 0.00 0.00 0.00 0.00 0.00 0.00 0.00 0.00 0.00 0.00 0.00 0.00 0.00 0.00 0.00 0.00 0.00 0.00 0.00 0.00 0.00 0.00 0.01 0.01 0.01 0.00 0.00 0.00 0.00 0.00 0.00 0.00 0.00 0.00 0.01 0.01 0.01 0.01
0.00 0.00 0.00 0.00 0.00 0.00 0.00 0.00 0.00 0.00 0.00 0.00 0.00 0.00 0.00 0.00 0.00 0.00 0.00 0.00 0.00 0.00 0.00 0.00 0.00 0.00 0.00 0.00 0.01 0.01 0.01 0.01 0.00 0.01 0.01 0.00 0.00 0.00 0.00 0.01 0.01 0.00 0.01
0.00 0.00 0.00 0.00 0.00 0.00 0.00 0.00 0.00 0.00 0.00 0.00 0.00 0.00 0.00 0.00 0.00 0.00 0.00 0.00 0.00 0.00 0.00 0.00 0.00 0.00 0.00 0.00 0.01 0.01 0.00 0.00 0.00 0.00 0.00 0.00 0.00 0.00 0.00 0.00 0.00 0.00 0.00
0.00 0.00 0.00 0.00 0.00 0.00 0.00 0.00 0.00 0.00 0.00 0.00 0.00 0.00 0.00 0.00 0.00 0.00 0.00 0.00 0.00 0.00 0.00 0.00 0.00 0.00 0.00 0.00 0.01 0.00 0.00 0.00 0.00 0.00 0.00 0.00 0.00 0.00 0.00 0.00 0.00 0.00 0.00
0.00 0.00 0.00 0.00 0.00 0.00 0.00 0.00 0.00 0.00 0.01 0.00 0.00 0.00 0.00 0.00 0.00 0.00 0.00 0.00 0.00 0.00 0.00 0.00 0.00 0.00 0.00 0.00 0.00 0.00 0.00 0.00 0.00 0.00 0.00 0.00 0.00 0.00 0.00 0.00 0.00 0.00 0.01
0.00 0.00 0.00 0.00 0.00 0.00 0.00 0.00 0.00 0.00 0.00 0.00 0.00 0.00 0.00 0.00 0.00 0.00 0.00 0.00 0.00 0.00 0.00 0.00 0.00 0.00 0.00 0.00 0.00 0.00 0.00 0.00 0.00 0.00 0.00 0.00 0.00 0.00 0.00 0.00 0.00 0.00 0.00
0.00 0.00 0.00 0.00 0.00 0.00 0.00 0.00 0.00 0.00 0.00 0.00 0.00 0.00 0.00 0.00 0.00 0.00 0.00 0.00 0.00 0.00 0.00 0.00 0.00 0.00 0.00 0.00 0.00 0.00 0.00 0.00 0.00 0.00 0.00 0.00 0.00 0.00 0.00 0.00 0.00 0.00 0.00
0.00 0.00 0.00 0.00 0.00 0.00 0.00 0.00 0.00 0.00 0.00 0.00 0.00 0.00 0.00 0.00 0.00 0.00 0.00 0.00 0.00 0.00 0.00 0.00 0.00 0.00 0.00 0.00 0.00 0.00 0.00 0.00 0.00 0.00 0.00 0.00 0.00 0.00 0.00 0.00 0.00 0.00 0.00
0.00 0.00 0.00 0.00 0.00 0.00 0.00 0.00 0.00 0.00 0.00 0.00 0.00 0.00 0.00 0.00 0.00 0.00 0.00 0.00 0.00 0.00 0.00 0.00 0.00 0.00 0.00 0.00 0.00 0.00 0.00 0.00 0.00 0.00 0.00 0.00 0.00 0.00 0.00 0.00 0.00 0.00 0.00
0.00 0.00 0.00 0.00 0.00 0.00 0.00 0.00 0.00 0.00 0.00 0.00 0.00 0.01 0.01 0.01 0.00 0.00 0.00 0.00 0.00 0.00 0.00 0.00 0.00 0.00 0.00 0.00 0.00 0.00 0.00 0.00 0.00 0.00 0.00 0.00 0.00 0.00 0.00 0.00 0.00 0.00 0.00
0.00 0.01 0.00 0.00 0.00 0.00 0.00 0.00 0.00 0.00 0.00 0.00 0.00 0.00 0.01 0.01 0.01 0.01 0.00 0.00 0.00 0.00 0.00 0.00 0.00 0.00 0.00 0.00 0.00 0.00 0.00 0.00 0.00 0.00 0.00 0.00 0.00 0.00 0.00 0.00 0.00 0.00 0.00
0.00 0.00 0.00 0.00 0.00 0.00 0.00 0.00 0.00 0.00 0.00 0.00 0.00 0.00 0.00 0.01 0.01 0.01 0.00 0.00 0.00 0.00 0.00 0.00 0.00 0.00 0.00 0.00 0.00 0.00 0.00 0.00 0.00 0.00 0.00 0.00 0.00 0.00 0.00 0.00 0.00 0.00 0.00
0.00 0.00 0.00 0.00 0.00 0.00 0.00 0.00 0.00 0.00 0.00 0.00 0.00 0.00 0.00 0.00 0.00 0.01 0.01 0.00 0.00 0.00 0.00 0.00 0.00 0.00 0.00 0.00 0.00 0.00 0.00 0.00 0.00 0.00 0.00 0.00 0.00 0.00 0.00 0.00 0.00 0.00 0.00
0.00 0.00 0.00 0.00 0.00 0.00 0.00 0.00 0.00 0.00 0.00 0.00 0.00 0.00 0.00 0.00 0.00 0.00 0.00 0.00 0.00 0.00 0.00 0.00 0.00 0.00 0.00 0.00 0.00 0.00 0.00 0.00 0.00 0.00 0.00 0.00 0.00 0.00 0.00 0.00 0.00 0.00 0.01
0.00 0.00 0.00 0.00 0.00 0.00 0.00 0.00 0.00 0.00 0.00 0.00 0.00 0.00 0.00 0.00 0.00 0.00 0.01 0.01 0.00 0.00 0.00 0.00 0.00 0.00 0.00 0.00 0.00 0.00 0.00 0.00 0.00 0.00 0.00 0.00 0.00 0.00 0.00 0.00 0.00 0.00 0.01
0.00 0.00 0.00 0.00 0.00 0.00 0.00 0.00 0.00 0.00 0.00 0.00 0.00 0.00 0.00 0.00 0.00 0.00 0.00 0.01 0.01 0.00 0.00 0.00 0.00 0.00 0.00 0.00 0.00 0.00 0.00 0.00 0.00 0.00 0.00 0.00 0.00 0.00 0.00 0.01 0.01 0.01 0.01
MSLP
1015.71 1015.96 1016.20 1016.42 1016.62 1016.83 1017.05 1017.31 1017.59 1017.88 1018.16 1018.38 1018.53 1018.59 1018.57 1018.47 1018.33 1018.18 1018.04 1017.91 1017.79 1017.65 1017.47 1017.22 1016.89 1016.50 1016.07 1015.64 1015.25 1014.94 1014.71 1014.55 1014.44 1014.32 1014.16 1013.92 1013.60 1013.23 1012.85 1012.51 1012.27 1012.14 1012.12
1015.56 1015.89 1016.21 1016.50 1016.75 1016.99 1017.23 1017.48 1017.75 1018.02 1018.28 1018.50 1018.65 1018.71 1018.69 1018.61 1018.48 1018.35 1018.22 1018.11 1018.01 1017.89 1017.74 1017.52 1017.22 1016.84 1016.41 1015.98 1015.56 1015.21 1014.94 1014.74 1014.59 1014.45 1014.28 1014.05 1013.76 1013.43 1013.08 1012.78 1012.56 1012.45 1012.43
1015.47 1015.87 1016.26 1016.61 1016.90 1017.16 1017.40 1017.64 1017.89 1018.15 1018.39 1018.60 1018.75 1018.82 1018.81 1018.74 1018.63 1018.51 1018.40 1018.30 1018.22 1018.13 1018.00 1017.81 1017.54 1017.19 1016.78 1016.34 1015.90 1015.52 1015.20 1014.96 1014.77 1014.61 1014.43 1014.23 1013.98 1013.69 1013.41 1013.16 1012.99 1012.91 1012.91
1015.45 1015.92 1016.36 1016.75 1017.08 1017.35 1017.58 1017.81 1018.04 1018.27 1018.50 1018.71 1018.86 1018.94 1018.95 1018.89 1018.80 1018.68 1018.58 1018.49 1018.42 1018.35 1018.26 1018.10 1017.87 1017.55 1017.16 1016.73 1016.29 1015.88 1015.53 1015.25 1015.03 1014.85 1014.68 1014.50 1014.29 1014.07 1013.85 1013.66 1013.53 1013.49 1013.51
1015.48 1016.00 1016.49 1016.92 1017.26 1017.54 1017.77 1017.98 1018.19 1018.41 1018.63 1018.83 1018.98 1019.08 1019.10 1019.06 1018.97 1018.86 1018.76 1018.67 1018.61 1018.55 1018.48 1018.36 1018.17 1017.90 1017.55 1017.15 1016.72 1016.31 1015.94 1015.64 1015.40 1015.21 1015.05 1014.89 1014.73 1014.55 1014.39 1014.25 1014.16 1014.13 1014.17
1015.55 1016.11 1016.64 1017.08 1017.44 1017.71 1017.93 1018.13 1018.32 1018.53 1018.75 1018.95 1019.11 1019.22 1019.25 1019.22 1019.13 1019.02 1018.91 1018.82 1018.75 1018.71 1018.66 1018.57 1018.43 1018.22 1017.92 1017.56 1017.17 1016.78 1016.42 1016.11 1015.86 1015.67 1015.51 1015.38 1015.25 1015.12 1014.99 1014.88 1014.80 1014.78 1014.80
1015.62 1016.21 1016.76 1017.21 1017.57 1017.84 1018.06 1018.24 1018.43 1018.63 1018.84 1019.05 1019.22 1019.34 1019.38 1019.35 1019.26 1019.14 1019.02 1018.91 1018.84 1018.79 1018.76 1018.71 1018.62 1018.47 1018.24 1017.94 1017.60 1017.25 1016.91 1016.61 1016.37 1016.18 1016.04 1015.92 1015.81 1015.70 1015.60 1015.49 1015.41 1015.36 1015.35
1015.68 1016.28 1016.83 1017.29 1017.65 1017.91 1018.12 1018.30 1018.49 1018.69 1018.90 1019.11 1019.29 1019.41 1019.47 1019.44 1019.34 1019.21 1019.07 1018.95 1018.86 1018.81 1018.79 1018.77 1018.72 1018.63 1018.47 1018.24 1017.97 1017.67 1017.37 1017.09 1016.87 1016.69 1016.56 1016.45 1016.36 1016.26 1016.16 1016.04 1015.94 1015.85 1015.78
1015.70 1016.30 1016.84 1017.30 1017.65 1017.92 1018.12 1018.30 1018.49 1018.69 1018.91 1019.13 1019.31 1019.45 1019.51 1019.48 1019.38 1019.24 1019.08 1018.93 1018.83 1018.77 1018.75 1018.76 1018.75 1018.71 1018.62 1018.46 1018.25 1018.01 1017.75 1017.51 1017.31 1017.15 1017.02 1016.92 1016.84 1016.74 1016.63 1016.51 1016.37 1016.23 1016.10
1015.67 1016.25 1016.79 1017.24 1017.59 1017.86 1018.08 1018.26 1018.45 1018.66 1018.88 1019.11 1019.31 1019.45 1019.52 1019.50 1019.40 1019.25 1019.07 1018.92 1018.80 1018.73 1018.71 1018.73 1018.75 1018.75 1018.71 1018.61 1018.46 1018.27 1018.06 1017.86 1017.67 1017.53 1017.41 1017.32 1017.24 1017.15 1017.03 1016.88 1016.71 1016.53 1016.35
1015.59 1016.16 1016.68 1017.13 1017.49 1017.77 1017.99 1018.19 1018.39 1018.61 1018.85 1019.09 1019.30 1019.46 1019.54 1019.53 1019.44 1019.30 1019.12 1018.96 1018.83 1018.75 1018.72 1018.74 1018.78 1018.81 1018.80 1018.75 1018.64 1018.49 1018.32 1018.15 1017.99 1017.86 1017.75 1017.67 1017.59 1017.49 1017.37 1017.21 1017.02 1016.80 1016.58
1015.46 1016.02 1016.55 1017.00 1017.37 1017.67 1017.91 1018.13 1018.36 1018.60 1018.85 1019.11 1019.34 1019.52 1019.63 1019.64 1019.57 1019.44 1019.28 1019.12 1018.99 1018.90 1018.87 1018.88 1018.92 1018.96 1018.97 1018.94 1018.87 1018.75 1018.61 1018.46 1018.31 1018.19 1018.09 1018.01 1017.93 1017.84 1017.71 1017.55 1017.34 1017.11 1016.86
1015.31 1015.86 1016.39 1016.86 1017.25 1017.57 1017.85 1018.10 1018.35 1018.63 1018.91 1019.19 1019.46 1019.67 1019.81 1019.86 1019.83 1019.73 1019.59 1019.45 1019.32 1019.23 1019.19 1019.20 1019.23 1019.26 1019.28 1019.26 1019.20 1019.10 1018.97 1018.84 1018.71 1018.59 1018.50 1018.41 1018.33 1018.24 1018.11 1017.94 1017.73 1017.49 1017.23
1015.13 1015.68 1016.22 1016.71 1017.13 1017.49 1017.80 1018.10 1018.40 1018.71 1019.03 1019.35 1019.65 1019.91 1020.09 1020.19 1020.21 1020.16 1020.06 1019.95 1019.84 1019.76 1019.71 1019.70 1019.72 1019.74 1019.75 1019.73 1019.67 1019.58 1019.46 1019.34 1019.21 1019.10 1019.00 1018.92 1018.83 1018.73 1018.60 1018.43 1018.21 1017.97 1017.70
1014.92 1015.49 1016.04 1016.55 1017.00 1017.41 1017.77 1018.12 1018.47 1018.83 1019.20 1019.57 1019.92 1020.22 1020.46 1020.62 1020.70 1020.71 1020.66 1020.58 1020.50 1020.43 1020.39 1020.37 1020.37 1020.38 1020.37 1020.34 1020.28 1020.19 1020.08 1019.96 1019.84 1019.73 1019.62 1019.53 1019.44 1019.32 1019.18 1019.00 1018.78 1018.53 1018.26
1014.70 1015.27 1015.83 1016.37 1016.86 1017.31 1017.72 1018.13 1018.53 1018.95 1019.37 1019.80 1020.20 1020.57 1020.87 1021.09 1021.23 1021.30 1021.31 1021.28 1021.23 1021.18 1021.14 1021.12 1021.11 1021.10 1021.08 1021.04 1020.98 1020.89 1020.79 1020.67 1020.55 1020.44 1020.33 1020.23 1020.12 1019.99 1019.84 1019.64 1019.41 1019.15 1018.86
1014.47 1015.03 1015.60 1016.16 1016.68 1017.17 1017.64 1018.10 1018.56 1019.04 1019.52 1020.00 1020.46 1020.88 1021.24 1021.53 1021.74 1021.87 1021.93 1021.94 1021.93 1021.90 1021.88 1021.85 1021.84 1021.82 1021.79 1021.75 1021.69 1021.60 1021.50 1021.40 1021.28 1021.17 1021.06 1020.95 1020.83 1020.69 1020.51 1020.30 1020.06 1019.78 1019.48
1014.24 1014.79 1015.36 1015.92 1016.46 1016.99 1017.51 1018.02 1018.54 1019.07 1019.60 1020.13 1020.65 1021.12 1021.53 1021.87 1022.13 1022.31 1022.43 1022.49 1022.51 1022.50 1022.49 1022.48 1022.46 1022.44 1022.41 1022.37 1022.31 1022.24 1022.15 1022.06 1021.96 1021.85 1021.74 1021.63 1021.49 1021.34 1021.15 1020.92 1020.66 1020.37 1020.06
1014.05 1014.57 1015.12 1015.68 1016.24 1016.79 1017.35 1017.90 1018.47 1019.04 1019.62 1020.19 1020.74 1021.25 1021.70 1022.08 1022.38 1022.60 1022.75 1022.85 1022.90 1022.92 1022.93 1022.92 1022.91 1022.90 1022.88 1022.84 1022.80 1022.74 1022.67 1022.59 1022.50 1022.40 1022.30 1022.18 1022.05 1021.89 1021.69 1021.46 1021.19 1020.89 1020.57
1013.92 1014.41 1014.93 1015.48 1016.04 1016.62 1017.20 1017.79 1018.39 1018.99 1019.60 1020.19 1020.76 1021.28 1021.75 1022.15 1022.47 1022.72 1022.90 1023.02 1023.09 1023.14 1023.16 1023.18 1023.18 1023.18 1023.17 1023.15 1023.12 1023.07 1023.02 1022.96 1022.88 1022.80 1022.70 1022.59 1022.45 1022.29 1022.09 1021.86 1021.60 1021.31 1020.99
1013.89 1014.34 1014.84 1015.38 1015.94 1016.52 1017.11 1017.72 1018.34 1018.96 1019.57 1020.17 1020.73 1021.25 1021.72 1022.11 1022.44 1022.69 1022.89 1023.03 1023.12 1023.19 1023.23 1023.26 1023.28 1023.30 1023.31 1023.30 1023.29 1023.26 1023.22 1023.17 1023.10 1023.03 1022.93 1022.83 1022.70 1022.54 1022.35 1022.13 1021.88 1021.60 1021.31
1013.99 1014.41 1014.89 1015.41 1015.97 1016.55 1017.15 1017.76 1018.38 1019.00 1019.60 1020.18 1020.72 1021.21 1021.65 1022.03 1022.34 1022.59 1022.79 1022.93 1023.04 1023.13 1023.19 1023.24 1023.29 1023.32 1023.35 1023.36 1023.36 1023.34 1023.31 1023.26 1023.20 1023.12 1023.02 1022.91 1022.78 1022.63 1022.45 1022.25 1022.02 1021.76 1021.49
1014.23 1014.63 1015.10 1015.61 1016.16 1016.74 1017.34 1017.94 1018.54 1019.14 1019.71 1020.25 1020.75 1021.21 1021.61 1021.95 1022.24 1022.47 1022.66 1022.81 1022.93 1023.03 1023.11 1023.19 1023.25 1023.31 1023.35 1023.37 1023.38 1023.37 1023.33 1023.27 1023.20 1023.11 1023.00 1022.88 1022.74 1022.59 1022.42 1022.23 1022.02 1021.79 1021.54
1014.62 1015.01 1015.47 1015.98 1016.52 1017.09 1017.67 1018.25 1018.83 1019.38 1019.91 1020.41 1020.86 1021.27 1021.62 1021.92 1022.17 1022.38 1022.55 1022.70 1022.82 1022.93 1023.03 1023.13 1023.21 1023.29 1023.34 1023.37 1023.38 1023.36 1023.31 1023.23 1023.14 1023.02 1022.89 1022.74 1022.59 1022.43 1022.25 1022.07 1021.87 1021.66 1021.44
1015.12 1015.52 1015.98 1016.48 1017.01 1017.56 1018.12 1018.67 1019.20 1019.72 1020.20 1020.64 1021.03 1021.38 1021.68 1021.93 1022.15 1022.33 1022.48 1022.62 1022.74 1022.86 1022.97 1023.08 1023.18 1023.27 1023.33 1023.36 1023.36 1023.32 1023.25 1023.15 1023.01 1022.86 1022.69 1022.52 1022.34 1022.15 1021.97 1021.78 1021.59 1021.39 1021.19
1015.72 1016.12 1016.57 1017.06 1017.57 1018.09 1018.61 1019.13 1019.62 1020.08 1020.50 1020.89 1021.23 1021.52 1021.77 1021.98 1022.15 1022.30 1022.43 1022.55 1022.67 1022.78 1022.90 1023.02 1023.12 1023.21 1023.27 1023.29 1023.28 1023.22 1023.12 1022.98 1022.81 1022.61 1022.40 1022.19 1021.98 1021.77 1021.57 1021.37 1021.18 1020.98 1020.78
Thickness
5732 5734 5734 5735 5735 5735 5736 5734 5733 5732 5730 5729 5728 5725 5724 5724 5722 5720 5718 5717 5716 5715 5715 5714 5713 5711 5710 5708 5709 5708 5706 5706 5707 5707 5706 5708 5710 5711 5710 5712 5713 5715 5716
5729 5729 5731 5732 5733 5733 5733 5732 5731 5730 5729 5726 5726 5724 5722 5722 5720 5718 5716 5715 5714 5713 5713 5712 5711 5709 5707 5706 5705 5704 5703 5703 5704 5703 5701 5700 5702 5704 5708 5709 5710 5712 5714
5727 5728 5728 5730 5730 5730 5730 5730 5730 5728 5726 5725 5724 5722 5720 5720 5719 5716 5715 5713 5711 5711 5710 5709 5709 5707 5707 5705 5703 5702 5700 5699 5701 5702 5699 5696 5695 5698 5703 5706 5708 5709 5711
5727 5726 5727 5727 5727 5728 5729 5729 5728 5727 5725 5724 5723 5721 5718 5717 5716 5715 5713 5712 5710 5709 5708 5708 5707 5706 5706 5703 5703 5702 5700 5698 5697 5698 5698 5698 5697 5695 5696 5702 5705 5706 5707
5727 5725 5726 5727 5728 5728 5727 5727 5726 5725 5723 5723 5720 5719 5718 5717 5715 5714 5712 5712 5710 5708 5707 5706 5706 5705 5704 5702 5701 5700 5699 5698 5697 5697 5696 5696 5695 5698 5694 5693 5698 5702 5705
5726 5725 5726 5726 5726 5726 5724 5724 5723 5721 5720 5720 5719 5718 5715 5713 5712 5711 5710 5710 5709 5708 5706 5705 5705 5704 5703 5702 5700 5699 5697 5697 5695 5696 5696 5694 5693 5693 5694 5693 5694 5696 5700
5725 5724 5723 5723 5722 5722 5721 5721 5720 5718 5718 5718 5718 5717 5714 5713 5711 5710 5708 5708 5708 5706 5705 5704 5704 5703 5701 5700 5699 5698 5696 5696 5694 5694 5694 5694 5694 5694 5693 5693 5693 5693 5697
5725 5724 5724 5722 5721 5721 5720 5720 5719 5717 5716 5716 5716 5716 5713 5711 5710 5708 5708 5707 5706 5705 5703 5703 5702 5701 5699 5698 5697 5696 5695 5695 5694 5693 5692 5692 5693 5693 5692 5691 5691 5691 5694
5725 5724 5723 5722 5720 5720 5719 5719 5718 5716 5715 5714 5713 5712 5711 5709 5708 5707 5707 5706 5705 5703 5702 5701 5700 5699 5697 5697 5696 5694 5693 5693 5692 5692 5692 5691 5691 5691 5691 5690 5690 5687 5687
5724 5723 5722 5721 5720 5719 5718 5718 5717 5715 5713 5712 5711 5708 5707 5706 5705 5705 5704 5703 5703 5701 5700 5699 5698 5697 5696 5695 5694 5693 5691 5691 5689 5688 5689 5689 5690 5689 5688 5688 5689 5688 5686
5724 5722 5720 5719 5718 5717 5716 5714 5714 5713 5711 5710 5708 5706 5705 5704 5703 5703 5702 5701 5700 5699 5698 5697 5696 5695 5694 5693 5692 5691 5690 5689 5689 5689 5688 5687 5687 5687 5686 5686 5686 5685 5685
5723 5721 5719 5717 5715 5715 5714 5713 5712 5710 5708 5707 5705 5704 5702 5701 5700 5700 5699 5699 5697 5696 5695 5694 5693 5692 5690 5690 5689 5688 5687 5686 5686 5686 5686 5685 5684 5684 5684 5683 5683 5683 5683
5721 5719 5716 5714 5713 5712 5712 5711 5710 5708 5706 5704 5702 5701 5699 5698 5697 5696 5696 5695 5694 5693 5691 5690 5688 5687 5687 5686 5685 5684 5684 5683 5683 5683 5683 5682 5682 5681 5681 5680 5681 5680 5680
5719 5717 5714 5713 5711 5711 5710 5708 5706 5704 5702 5701 5698 5696 5696 5694 5693 5693 5692 5691 5691 5689 5688 5687 5685 5684 5683 5682 5681 5681 5680 5680 5679 5679 5679 5679 5678 5677 5677 5676 5676 5676 5675
5716 5714 5712 5712 5710 5709 5707 5705 5702 5700 5699 5696 5694 5693 5692 5690 5689 5689 5688 5686 5685 5684 5683 5682 5680 5678 5677 5676 5675 5675 5675 5675 5674 5674 5674 5673 5670 5668 5668 5668 5669 5669 5669
5714 5714 5713 5711 5708 5707 5703 5700 5698 5697 5695 5692 5689 5688 5687 5685 5683 5683 5683 5681 5679 5678 5678 5677 5675 5673 5671 5667 5665 5666 5669 5670 5669 5668 5668 5667 5666 5663 5661 5660 5660 5659 5661
5715 5713 5713 5710 5708 5706 5702 5698 5696 5694 5691 5688 5684 5682 5681 5679 5678 5677 5676 5674 5673 5672 5671 5671 5669 5667 5663 5660 5659 5658 5661 5662 5662 5662 5661 5660 5660 5658 5658 5657 5656 5655 5654
5713 5712 5711 5708 5706 5704 5700 5697 5693 5690 5687 5683 5680 5677 5675 5673 5672 5671 5669 5668 5668 5666 5664 5663 5661 5659 5656 5653 5652 5651 5655 5656 5655 5655 5654 5653 5652 5651 5650 5651 5652 5652 5651
5713 5710 5708 5705 5702 5699 5696 5692 5688 5685 5681 5678 5675 5672 5669 5667 5665 5664 5663 5662 5662 5659 5657 5656 5653 5652 5650 5646 5644 5643 5647 5648 5648 5647 5646 5644 5643 5640 5638 5641 5644 5644 5644
5708 5704 5702 5700 5696 5694 5691 5687 5683 5680 5676 5672 5670 5667 5664 5661 5659 5658 5656 5655 5653 5651 5650 5649 5647 5645 5643 5638 5636 5634 5639 5639 5639 5638 5637 5634 5632 5629 5628 5631 5633 5634 5635
5701 5699 5696 5693 5691 5688 5686 5682 5678 5674 5670 5667 5664 5660 5658 5655 5653 5651 5648 5647 5645 5644 5643 5642 5640 5638 5634 5631 5627 5625 5627 5627 5628 5628 5627 5626 5621 5619 5618 5618 5621 5622 5622
5694 5692 5689 5686 5684 5682 5679 5675 5670 5667 5663 5659 5656 5653 5651 5648 5646 5643 5640 5639 5637 5636 5634 5633 5631 5629 5627 5622 5619 5616 5614 5613 5615 5615 5615 5614 5609 5608 5607 5608 5608 5608 5608
5688 5686 5683 5678 5675 5674 5672 5667 5662 5659 5655 5652 5649 5646 5644 5641 5638 5635 5632 5631 5629 5627 5626 5624 5622 5620 5618 5614 5609 5607 5605 5602 5602 5604 5601 5599 5597 5597 5599 5599 5597 5597 5600
5682 5679 5676 5672 5668 5665 5663 5659 5655 5651 5648 5645 5642 5639 5636 5633 5630 5626 5624 5622 5619 5617 5615 5613 5611 5610 5607 5605 5602 5599 5597 5594 5593 5592 5591 5588 5587 5586 5586 5587 5588 5588 5588
5675 5672 5669 5665 5661 5657 5654 5650 5647 5644 5641 5638 5635 5631 5627 5624 5621 5618 5614 5611 5608 5604 5601 5600 5599 5597 5595 5592 5586 5583 5584 5582 5581 5579 5579 5580 5579 5579 5578 5578 5577 5575 5575
5668 5664 5661 5658 5654 5650 5645 5641 5638 5636 5634 5630 5626 5622 5618 5614 5611 5608 5605 5599 5594 5590 5587 5583 5581 5582 5579 5576 5574 5571 5569 5567 5565 5564 5567 5568 5567 5566 5565 5564 5563 5562 5561